COSMOS 1500 (14372 NORAD) Tracking and Keplerian Element Data

This shows tracking and keplerian element data for the satellite.

Feedback or suggestion? Click here.




ElementValue
Catalog14372
NameCOSMOS 1500
Epoch Orbit9142
Epoch Day15.85185488
Epoch Year2022
RAAN126.9546
Inclination82.5161
Eccentricity0.0015033
Argument of Perigee24.4898
Mean Anonmoly335.7048
Mean Motion15.19977725
Decay Rate3.462E-05
L11 14372U 83099A 22015.85185488 .00003462 00000+0 15897-3 0 9990
L22 14372 82.5161 126.9546 0015033 24.4898 335.7048 15.19977725 91421

Live tracking and technical data element details for COSMOS 1500 (NORAD 14372). COSMOS 1500 can be tracked NOW for your location showing map with azimuth and elevation plus other details from your city location.

Track the satellite on the map from your city or location and see movement details for azimuth, elevation, latitude, longitude, range, height, and movement on the map or in text.







IsCatalogInMostPopularTable: catalog: 14372, numindb: 291
Update: records affected: 1



GetName: 14372 COSMOS 1500

Hit Count: updated at: Mon, 17 Jan 2022 01:46:55 GMT